Weather in Perovo

Russia / Yaroslavl Oblast     56°59′32″N   39°20′52″E
temp.,
°C
wind,
m/s
gust,
m/s
humid.,
%
clouds,
%
prec.,
mm/h
press.,
hPa
HPBL,
m
24 july, sat
sat2400:00+11nw358618 0.0 100868
03:00+11nw258271 0.0 1009119
06:00+11nnw3790100 0.4 1010244
09:00+14n457580 1.1 1012517
12:00+19n344072 0.0 10122075
15:00+20nnw553854 0.0 10142136
18:00+18nw344386 0.0 1015790
21:00+12w336710 0.0 101732
25 july, sun
sun2500:00+10w33725 0.0 101829
03:00+9wsw347435 0.0 101948
06:00+13wsw2560100 0.0 1020138
09:00+17wsw3450100 0.0 1020248
12:00+21w353337 0.0 10212509
15:00+22wsw233122 0.0 10202423
18:00+19sw4747100 0.0 1021400
21:00+17wsw245597 0.0 102173
26 july, mon
mon2600:00+16wsw235799 0.0 102251
03:00+16w355888 0.0 102397
06:00+16wsw266088 0.0 1023152
09:00+19wsw3548100 0.0 1023389
12:00+23wsw344249 0.0 1023886
15:00+24wnw343598 0.0 10221988
18:00+22w374741 0.0 1022308
21:00+19wsw385786 0.0 1022162
27 july, tue
tue2700:00+16w366729 0.0 102285
03:00+16w37709 0.0 1022109
06:00+16wnw26746 0.0 1023152
09:00+24wnw34485 0.0 1022577
12:00+28wnw443498 0.0 10212851
15:00+26wsw453852 0.0 10201238
18:00+20nne126498 0.3 102048
21:00+19sw226346 0.3 101913
28 july, wed
wed2800:00+18w23747 0.1 102046
03:00+17wsw357588 0.1 101982
06:00+17wsw37792 0.0 1018154
09:00+25wsw46515 0.0 1017601
12:00+28wsw563647 0.0 10152609
15:00+27wsw674249 0.0 10141201
18:00+27sw464070 0.0 10121315
21:00+22sw3759100 0.0 1011180